Atmospheric History
12/06/2017 18:27  to  12/7/2017 18:27
Change End Date:
To complete the export process:
1) Select all of the data below
2) Copy the data to the clipboard
3) Open a word processor such as Notepad
4) Paste the data into the word processor
5) Save the file

Date/Time (MDT), AirTemp, RH, Dewpoint ,AvgWindSpeed, GustWindSpeed, WindDirection, PrecipType, PrecipIntensity, PrecipAccumulation, PrecipRate
12/07/2017 18:26, 40, 40, 18 ,22, 30, NW, None, None, ,  
12/07/2017 18:20, 40, 42, 19 ,20, 29, NW, None, None, ,  
12/07/2017 18:16, 40, 40, 18 ,22, 28, NW, None, None, ,  
12/07/2017 18:06, 41, 39, 18 ,23, 32, NW, None, None, ,  
12/07/2017 18:05, 40, 40, 18 ,23, 32, NW, None, None, ,  
12/07/2017 17:56, 40, 39, 18 ,25, 34, NW, None, None, ,  
12/07/2017 17:50, 41, 40, 19 ,26, 35, NW, None, None, ,  
12/07/2017 17:46, 41, 40, 19 ,25, 35, NW, None, None, ,  
12/07/2017 17:36, 41, 39, 18 ,27, 36, NW, None, None, ,  
12/07/2017 17:35, 41, 40, 19 ,27, 38, NW, None, None, ,  
12/07/2017 17:26, 40, 41, 19 ,26, 38, NW, None, None, ,  
12/07/2017 17:20, 41, 39, 18 ,29, 38, NW, None, None, ,  
12/07/2017 17:16, 41, 40, 19 ,29, 36, NW, None, None, ,  
12/07/2017 17:06, 41, 41, 19 ,30, 37, NW, None, None, ,  
12/07/2017 17:05, 41, 40, 19 ,30, 37, NW, None, None, ,  
12/07/2017 16:56, 41, 41, 19 ,31, 38, NW, None, None, ,  
12/07/2017 16:50, 41, 41, 19 ,30, 37, NW, None, None, ,  
12/07/2017 16:46, 41, 41, 19 ,30, 37, NW, None, None, ,  
12/07/2017 16:36, 40, 42, 20 ,27, 35, NW, None, None, ,  
12/07/2017 16:35, 40, 43, 20 ,26, 35, NW, None, None, ,  
12/07/2017 16:26, 41, 43, 20 ,28, 34, NW, None, None, ,  
12/07/2017 16:20, 41, 41, 19 ,27, 34, NW, None, None, ,  
12/07/2017 16:15, 41, 42, 20 ,27, 34, NW, None, None, ,  
12/07/2017 16:05, 41, 43, 20 ,26, 35, NW, None, None, ,  
12/07/2017 16:05, 41, 42, 20 ,29, 35, NW, None, None, ,  
12/07/2017 15:55, 41, 42, 20 ,26, 31, NW, None, None, ,  
12/07/2017 15:50, 41, 43, 21 ,21, 28, NW, None, None, ,  
12/07/2017 15:45, 41, 43, 20 ,23, 28, NW, None, None, ,  
12/07/2017 15:35, 41, 43, 20 ,24, 30, NW, None, None, ,  
12/07/2017 15:35, 41, 42, 20 ,24, 30, NW, None, None, ,  
12/07/2017 15:25, 41, 42, 20 ,23, 29, NW, None, None, ,  
12/07/2017 15:20, 41, 42, 20 ,25, 29, NW, None, None, ,  
12/07/2017 15:15, 41, 43, 20 ,21, 27, NW, None, None, ,  
12/07/2017 15:05, 41, 42, 20 ,19, 27, NW, None, None, ,  
12/07/2017 15:05, 41, 42, 20 ,19, 27, NW, None, None, ,  
12/07/2017 14:55, 42, 41, 20 ,21, 29, NW, None, None, ,  
12/07/2017 14:50, 42, 39, 19 ,23, 29, NW, None, None, ,  
12/07/2017 14:45, 42, 39, 19 ,24, 30, NW, None, None, ,  
12/07/2017 14:35, 42, 39, 19 ,24, 32, NW, None, None, ,  
12/07/2017 14:35, 42, 39, 19 ,24, 32, NW, None, None, ,  
12/07/2017 14:25, 41, 41, 20 ,24, 30, NW, None, None, ,  
12/07/2017 14:20, 41, 39, 19 ,24, 32, NW, None, None, ,  
12/07/2017 14:15, 42, 39, 19 ,24, 32, NW, None, None, ,  
12/07/2017 14:05, 42, 40, 19 ,25, 36, NW, None, None, ,  
12/07/2017 14:05, 42, 40, 19 ,24, 36, NW, None, None, ,  
12/07/2017 13:55, 42, 39, 19 ,24, 34, NW, None, None, ,  
12/07/2017 13:50, 42, 39, 19 ,26, 33, NW, None, None, ,  
12/07/2017 13:45, 42, 39, 19 ,26, 34, NW, None, None, ,  
12/07/2017 13:35, 42, 39, 19 ,26, 33, NW, None, None, ,  
12/07/2017 13:35, 42, 39, 19 ,26, 33, NW, None, None, ,  
12/07/2017 13:25, 41, 41, 19 ,24, 30, NW, None, None, ,  
12/07/2017 13:20, 40, 41, 19 ,25, 30, NW, None, None, ,  
12/07/2017 13:15, 40, 43, 20 ,21, 27, NW, None, None, ,  
12/07/2017 13:05, 40, 44, 20 ,21, 26, NW, None, None, ,  
12/07/2017 13:04, 40, 44, 20 ,21, 26, NW, None, None, ,  
12/07/2017 12:54, 40, 43, 20 ,21, 32, NW, None, None, ,  
12/07/2017 12:50, 40, 44, 20 ,22, 32, NW, None, None, ,  
12/07/2017 12:44, 40, 43, 20 ,22, 28, NW, None, None, ,  
12/07/2017 12:35, 40, 44, 20 ,21, 29, NW, None, None, ,  
12/07/2017 12:34, 40, 43, 20 ,21, 29, NW, None, None, ,  
12/07/2017 12:24, 40, 44, 20 ,21, 26, NW, None, None, ,  
12/07/2017 12:20, 40, 43, 19 ,20, 29, NW, None, None, ,  
12/07/2017 12:14, 40, 43, 19 ,22, 31, NW, None, None, ,  
12/07/2017 12:05, 39, 43, 19 ,24, 31, NW, None, None, ,  
12/07/2017 12:04, 39, 45, 20 ,22, 31, NW, None, None, ,  
12/07/2017 11:54, 39, 44, 20 ,24, 32, NW, None, None, ,  
12/07/2017 11:50, 39, 44, 19 ,25, 34, NW, None, None, ,  
12/07/2017 11:44, 39, 44, 19 ,27, 37, NW, None, None, ,  
12/07/2017 11:35, 39, 43, 19 ,27, 33, NW, None, None, ,  
12/07/2017 11:34, 39, 43, 19 ,27, 33, NW, None, None, ,  
12/07/2017 11:24, 39, 44, 19 ,25, 34, NW, None, None, ,  
12/07/2017 11:20, 39, 45, 20 ,25, 35, NW, None, None, ,  
12/07/2017 11:14, 39, 44, 19 ,27, 35, NW, None, None, ,  
12/07/2017 11:05, 39, 44, 19 ,26, 37, NW, None, None, ,  
12/07/2017 11:04, 39, 44, 19 ,27, 37, NW, None, None, ,  
12/07/2017 10:54, 39, 43, 19 ,26, 35, NW, None, None, ,  
12/07/2017 10:50, 39, 43, 19 ,24, 35, NW, None, None, ,  
12/07/2017 10:44, 39, 42, 18 ,27, 35, NW, None, None, ,  
12/07/2017 10:35, 39, 42, 18 ,26, 37, NW, None, None, ,  
12/07/2017 10:34, 39, 44, 19 ,24, 37, NW, None, None, ,  
12/07/2017 10:24, 39, 42, 18 ,29, 35, NW, None, None, ,  
12/07/2017 10:20, 39, 42, 18 ,25, 33, NW, None, None, ,  
12/07/2017 10:13, 39, 44, 19 ,24, 33, NW, None, None, ,  
12/07/2017 10:05, 38, 44, 18 ,28, 36, NW, None, None, ,  
12/07/2017 10:03, 38, 44, 18 ,27, 36, NW, None, None, ,  
12/07/2017 09:53, 38, 43, 18 ,25, 31, NW, None, None, ,  
12/07/2017 09:50, 38, 42, 17 ,24, 31, NW, None, None, ,  
12/07/2017 09:43, 38, 43, 18 ,21, 28, NW, None, None, ,  
12/07/2017 09:35, 38, 41, 16 ,22, 30, NW, None, None, ,  
12/07/2017 09:33, 38, 43, 17 ,20, 30, NW, None, None, ,  
12/07/2017 09:23, 38, 40, 16 ,22, 27, NW, None, None, ,  
12/07/2017 09:20, 37, 42, 17 ,19, 22, NW, None, None, ,  
12/07/2017 09:13, 37, 43, 17 ,17, 21, NW, None, None, ,  
12/07/2017 09:05, 37, 43, 16 ,17, 23, NW, None, None, ,  
12/07/2017 09:03, 36, 43, 16 ,18, 25, NW, None, None, ,  
12/07/2017 08:53, 36, 45, 16 ,18, 27, NW, None, None, ,  
12/07/2017 08:50, 36, 44, 16 ,21, 27, NW, None, None, ,  
12/07/2017 08:43, 35, 45, 16 ,22, 26, NW, None, None, ,  
12/07/2017 08:35, 35, 45, 16 ,21, 27, NW, None, None, ,  
12/07/2017 08:33, 35, 45, 16 ,21, 27, NW, None, None, ,  
12/07/2017 08:23, 35, 46, 16 ,20, 24, NW, None, None, ,  
12/07/2017 08:20, 34, 47, 17 ,19, 30, NW, None, None, ,  
12/07/2017 08:13, 35, 46, 17 ,21, 30, NW, None, None, ,  
12/07/2017 08:05, 34, 48, 17 ,21, 31, NW, None, None, ,  
12/07/2017 08:03, 35, 48, 17 ,21, 31, NW, None, None, ,  
12/07/2017 07:53, 35, 46, 17 ,24, 37, NW, None, None, ,  
12/07/2017 07:50, 35, 46, 17 ,24, 37, NW, None, None, ,  
12/07/2017 07:43, 35, 46, 17 ,25, 34, NW, None, None, ,  
12/07/2017 07:35, 35, 45, 16 ,26, 32, NW, None, None, ,  
12/07/2017 07:33, 35, 45, 17 ,24, 32, NW, None, None, ,  
12/07/2017 07:23, 35, 46, 17 ,24, 33, NW, None, None, ,  
12/07/2017 07:20, 35, 47, 17 ,22, 33, NW, None, None, ,  
12/07/2017 07:13, 35, 46, 17 ,25, 36, NW, None, None, ,  
12/07/2017 07:05, 35, 46, 17 ,25, 32, NW, None, None, ,  
12/07/2017 07:03, 35, 46, 17 ,24, 32, NW, None, None, ,  
12/07/2017 06:53, 35, 46, 17 ,22, 30, NW, None, None, ,  
12/07/2017 06:50, 35, 47, 17 ,23, 29, NW, None, None, ,  
12/07/2017 06:42, 31, 58, 18 ,16, 21, NW, None, None, ,  
12/07/2017 06:35, 30, 61, 19 ,14, 16, N, None, None, ,  
12/07/2017 06:32, 30, 61, 19 ,13, 16, N, None, None, ,  
12/07/2017 06:22, 30, 60, 18 ,13, 15, N, None, None, ,  
12/07/2017 06:20, 30, 59, 18 ,12, 14, N, None, None, ,  
12/07/2017 06:12, 31, 56, 17 ,12, 16, N, None, None, ,  
12/07/2017 06:05, 31, 55, 17 ,12, 16, N, None, None, ,  
12/07/2017 06:02, 31, 55, 17 ,12, 16, N, None, None, ,  
12/07/2017 05:52, 31, 53, 16 ,12, 15, N, None, None, ,  
12/07/2017 05:50, 31, 54, 16 ,11, 15, N, None, None, ,  
12/07/2017 05:42, 31, 53, 16 ,12, 14, N, None, None, ,  
12/07/2017 05:35, 30, 54, 15 ,12, 16, N, None, None, ,  
12/07/2017 05:32, 30, 55, 15 ,12, 16, N, None, None, ,  
12/07/2017 05:22, 29, 56, 16 ,12, 15, N, None, None, ,  
12/07/2017 05:20, 29, 55, 16 ,12, 16, N, None, None, ,  
12/07/2017 05:12, 29, 55, 15 ,12, 14, N, None, None, ,  
12/07/2017 05:05, 29, 57, 16 ,12, 14, N, None, None, ,  
12/07/2017 05:02, 29, 55, 16 ,12, 14, N, None, None, ,  
12/07/2017 04:52, 29, 55, 15 ,12, 13, N, None, None, ,  
12/07/2017 04:50, 29, 56, 16 ,12, 14, N, None, None, ,  
12/07/2017 04:42, 29, 55, 15 ,12, 14, N, None, None, ,  
12/07/2017 04:35, 29, 55, 15 ,11, 14, N, None, None, ,  
12/07/2017 04:32, 29, 55, 15 ,12, 14, N, None, None, ,  
12/07/2017 04:22, 30, 53, 16 ,11, 17, N, None, None, ,  
12/07/2017 04:20, 31, 51, 15 ,12, 17, N, None, None, ,  
12/07/2017 04:12, 30, 51, 15 ,11, 14, NW, None, None, ,  
12/07/2017 04:05, 30, 51, 15 ,11, 14, NW, None, None, ,  
12/07/2017 04:02, 30, 51, 15 ,11, 16, NW, None, None, ,  
12/07/2017 03:52, 31, 50, 15 ,11, 15, NW, None, None, ,  
12/07/2017 03:50, 30, 51, 15 ,11, 15, NW, None, None, ,  
12/07/2017 03:42, 30, 52, 15 ,10, 13, NW, None, None, ,  
12/07/2017 03:35, 30, 54, 16 ,9, 12, NW, None, None, ,  
12/07/2017 03:31, 30, 56, 16 ,9, 12, N, None, None, ,  
12/07/2017 03:21, 31, 52, 15 ,10, 16, NW, None, None, ,  
12/07/2017 03:20, 31, 52, 16 ,11, 16, NW, None, None, ,  
12/07/2017 03:11, 31, 53, 16 ,11, 15, NW, None, None, ,  
12/07/2017 03:05, 31, 54, 16 ,12, 15, NW, None, None, ,  
12/07/2017 03:01, 31, 52, 16 ,12, 17, NW, None, None, ,  
12/07/2017 02:51, 30, 53, 16 ,14, 18, NW, None, None, ,  
12/07/2017 02:50, 30, 56, 17 ,12, 18, NW, None, None, ,  
12/07/2017 02:41, 30, 54, 16 ,14, 17, NW, None, None, ,  
12/07/2017 02:35, 30, 53, 15 ,11, 15, NW, None, None, ,  
12/07/2017 02:31, 30, 52, 15 ,10, 15, NW, None, None, ,  
12/07/2017 02:21, 30, 47, 12 ,13, 17, NW, None, None, ,  
12/07/2017 02:20, 29, 49, 12 ,11, 16, NW, None, None, ,  
12/07/2017 02:11, 28, 51, 13 ,11, 16, N, None, None, ,  
12/07/2017 02:05, 28, 51, 13 ,10, 14, NW, None, None, ,  
12/07/2017 02:01, 28, 51, 13 ,9, 13, N, None, None, ,  
12/07/2017 01:51, 28, 51, 12 ,9, 12, N, None, None, ,  
12/07/2017 01:50, 28, 52, 13 ,9, 12, N, None, None, ,  
12/07/2017 01:41, 28, 54, 13 ,9, 12, N, None, None, ,  
12/07/2017 01:35, 28, 52, 13 ,9, 12, N, None, None, ,  
12/07/2017 01:31, 28, 52, 13 ,10, 15, N, None, None, ,  
12/07/2017 01:21, 28, 51, 12 ,13, 19, N, None, None, ,  
12/07/2017 01:20, 28, 50, 12 ,13, 19, N, None, None, ,  
12/07/2017 01:11, 28, 50, 12 ,14, 16, N, None, None, ,  
12/07/2017 01:05, 28, 50, 12 ,12, 17, N, None, None, ,  
12/07/2017 01:01, 29, 46, 11 ,14, 19, NW, None, None, ,  
12/07/2017 00:51, 28, 49, 12 ,12, 16, NW, None, None, ,  
12/07/2017 00:50, 28, 49, 11 ,13, 16, NW, None, None, ,  
12/07/2017 00:41, 28, 50, 12 ,11, 15, NW, None, None, ,  
12/07/2017 00:35, 28, 50, 12 ,9, 12, N, None, None, ,  
12/07/2017 00:31, 28, 49, 11 ,10, 16, N, None, None, ,  
12/07/2017 00:21, 28, 49, 11 ,10, 17, NW, None, None, ,  
12/07/2017 00:20, 28, 49, 11 ,10, 17, NW, None, None, ,  
12/07/2017 00:11, 28, 48, 11 ,12, 16, NW, None, None, ,  
12/07/2017 00:05, 28, 51, 12 ,12, 15, NW, None, None, ,  
12/07/2017 00:00, 28, 51, 12 ,12, 18, NW, None, None, ,  
12/06/2017 23:50, 28, 50, 12 ,13, 19, NW, None, None, ,  
12/06/2017 23:50, 28, 49, 11 ,13, 19, NW, None, None, ,  
12/06/2017 23:40, 28, 49, 12 ,14, 21, NW, None, None, ,  
12/06/2017 23:35, 29, 46, 11 ,16, 21, NW, None, None, ,  
12/06/2017 23:30, 28, 47, 11 ,17, 21, NW, None, None, ,  
12/06/2017 23:20, 28, 48, 11 ,14, 21, NW, None, None, ,  
12/06/2017 23:20, 28, 48, 11 ,14, 21, NW, None, None, ,  
12/06/2017 23:10, 28, 49, 12 ,14, 20, NW, None, None, ,  
12/06/2017 23:05, 28, 47, 11 ,16, 23, NW, None, None, ,  
12/06/2017 23:00, 28, 47, 11 ,16, 21, NW, None, None, ,  
12/06/2017 22:50, 28, 47, 11 ,17, 27, NW, None, None, ,  
12/06/2017 22:50, 29, 47, 11 ,17, 27, NW, None, None, ,  
12/06/2017 22:40, 28, 47, 11 ,18, 23, NW, None, None, ,  
12/06/2017 22:35, 28, 49, 12 ,17, 21, NW, None, None, ,  
12/06/2017 22:30, 28, 50, 12 ,16, 22, NW, None, None, ,  
12/06/2017 22:20, 28, 50, 11 ,17, 22, NW, None, None, ,  
12/06/2017 22:20, 28, 51, 12 ,16, 22, NW, None, None, ,  
12/06/2017 22:10, 26, 53, 12 ,12, 17, NW, None, None, ,  
12/06/2017 22:05, 25, 56, 12 ,9, 16, N, None, None, ,  
12/06/2017 22:00, 26, 55, 12 ,12, 17, NW, None, None, ,  
12/06/2017 21:50, 25, 56, 12 ,12, 20, NW, None, None, ,  
12/06/2017 21:50, 25, 56, 12 ,12, 20, NW, None, None, ,  
12/06/2017 21:40, 24, 57, 11 ,15, 21, NW, None, None, ,  
12/06/2017 21:35, 24, 59, 12 ,11, 22, NW, None, None, ,  
12/06/2017 21:30, 25, 54, 11 ,17, 22, NW, None, None, ,  
12/06/2017 21:20, 23, 60, 11 ,12, 17, NW, None, None, ,  
12/06/2017 21:20, 23, 60, 12 ,12, 17, NW, None, None, ,  
12/06/2017 21:10, 23, 61, 11 ,11, 15, N, None, None, ,  
12/06/2017 21:05, 23, 61, 11 ,11, 16, N, None, None, ,  
12/06/2017 20:59, 23, 59, 11 ,12, 16, N, None, None, ,  
12/06/2017 20:50, 23, 60, 11 ,11, 15, NW, None, None, ,  
12/06/2017 20:49, 23, 60, 11 ,11, 15, NW, None, None, ,  
12/06/2017 20:39, 23, 59, 11 ,13, 18, NW, None, None, ,  
12/06/2017 20:35, 24, 58, 11 ,14, 18, NW, None, None, ,  
12/06/2017 20:29, 23, 58, 11 ,13, 19, NW, None, None, ,  
12/06/2017 20:20, 22, 61, 11 ,12, 17, NW, None, None, ,  
12/06/2017 20:19, 22, 61, 11 ,12, 17, NW, None, None, ,  
12/06/2017 20:09, 22, 65, 12 ,12, 14, NW, None, None, ,  
12/06/2017 20:05, 21, 68, 12 ,10, 13, N, None, None, ,  
12/06/2017 19:59, 21, 69, 13 ,11, 13, N, None, None, ,  
12/06/2017 19:50, 22, 68, 13 ,11, 12, N, None, None, ,  
12/06/2017 19:49, 22, 68, 13 ,11, 12, N, None, None, ,  
12/06/2017 19:39, 22, 68, 13 ,11, 13, N, None, None, ,  
12/06/2017 19:35, 22, 69, 13 ,11, 13, N, None, None, ,  
12/06/2017 19:29, 22, 69, 13 ,10, 12, N, None, None, ,  
12/06/2017 19:20, 22, 69, 13 ,9, 13, N, None, None, ,  
12/06/2017 19:19, 22, 69, 13 ,9, 13, N, None, None, ,  
12/06/2017 19:09, 22, 68, 13 ,11, 16, N, None, None, ,  
12/06/2017 19:05, 22, 67, 13 ,12, 16, NW, None, None, ,  
12/06/2017 18:59, 22, 67, 13 ,14, 16, NW, None, None, ,  
12/06/2017 18:50, 22, 69, 14 ,13, 17, NW, None, None, ,  
12/06/2017 18:49, 22, 70, 14 ,12, 17, NW, None, None, ,  
12/06/2017 18:39, 21, 73, 14 ,11, 13, NW, None, None, ,  
12/06/2017 18:35, 20, 75, 14 ,11, 12, NW, None, None, ,  
12/06/2017 18:29, 21, 75, 14 ,9, 11, NW, None, None, ,  
Change End Date:

Copyright © 1998-2015 Vaisala, Inc.
All Rights Reserved
Send comments about the data to:
SCAN Web ® is a registered trademark of Vaisala, Inc.
SCAN Web Version 6.0